Previsão horária em Cerekiew

Hoje, 25 Julho, Domingo

Tempo Temperatura Precipitação Vento Pressão Humidade
00:00 +20°C° 0 mm 2 m/s 744 mmHg 68%
01:00 +20°C° 0 mm 2 m/s 744 mmHg 66%
02:00 +20°C° 0 mm 2 m/s 744 mmHg 66%
03:00 +19°C° 0 mm 2 m/s 744 mmHg 66%
04:00 +19°C° 0 mm 2 m/s 743 mmHg 66%
05:00 +20°C° 0 mm 2 m/s 744 mmHg 64%
06:00 +23°C° 0 mm 2 m/s 744 mmHg 61%
07:00 +24°C° 0 mm 2 m/s 744 mmHg 59%
08:00 +26°C° 0 mm 2 m/s 744 mmHg 53%
09:00 +28°C° 0 mm 3 m/s 744 mmHg 48%
10:00 +29°C° 0 mm 4 m/s 744 mmHg 42%
11:00 +29°C° 0 mm 4 m/s 744 mmHg 47%
12:00 +28°C° 0 mm 4 m/s 744 mmHg 52%
13:00 +27°C° 0 mm 5 m/s 744 mmHg 57%
14:00 +26°C° 0.1 mm 4 m/s 744 mmHg 62%
15:00 +24°C° 0.1 mm 3 m/s 744 mmHg 67%
16:00 +23°C° 0.1 mm 2 m/s 744 mmHg 71%
17:00 +23°C° 0 mm 2 m/s 743 mmHg 72%
18:00 +23°C° 0 mm 2 m/s 743 mmHg 73%
19:00 +21°C° 0 mm 2 m/s 743 mmHg 74%
20:00 +20°C° 0 mm 2 m/s 743 mmHg 75%
21:00 +20°C° 0 mm 3 m/s 743 mmHg 76%
22:00 +19°C° 0 mm 3 m/s 743 mmHg 78%
23:00 +19°C° 0 mm 3 m/s 742 mmHg 77%

Amanhã, 26 Julho, Segunda-feira

Tempo Temperatura Precipitação Vento Pressão Humidade
00:00 +19°C° 0 mm 3 m/s 742 mmHg 77%
01:00 +19°C° 0 mm 3 m/s 742 mmHg 77%
02:00 +19°C° 0 mm 2 m/s 742 mmHg 79%
03:00 +19°C° 0 mm 2 m/s 742 mmHg 81%
04:00 +20°C° 0 mm 1 m/s 741 mmHg 82%
05:00 +21°C° 0.4 mm 1 m/s 742 mmHg 82%
06:00 +22°C° 0.4 mm 1 m/s 742 mmHg 81%
07:00 +23°C° 0.4 mm 1 m/s 743 mmHg 80%
08:00 +24°C° 0.2 mm 1 m/s 743 mmHg 74%
09:00 +26°C° 0.2 mm 1 m/s 743 mmHg 67%
10:00 +28°C° 0.2 mm 1 m/s 743 mmHg 61%
11:00 +29°C° 0.3 mm 2 m/s 743 mmHg 58%
12:00 +30°C° 0.3 mm 2 m/s 743 mmHg 55%
13:00 +31°C° 0.3 mm 2 m/s 742 mmHg 52%
14:00 +30°C° 0.3 mm 3 m/s 742 mmHg 57%
15:00 +29°C° 0.3 mm 3 m/s 742 mmHg 62%
16:00 +28°C° 0.3 mm 4 m/s 742 mmHg 66%
17:00 +27°C° 0.5 mm 3 m/s 742 mmHg 70%
18:00 +26°C° 0.5 mm 1 m/s 742 mmHg 74%
19:00 +23°C° 0.5 mm 0 m/s 742 mmHg 78%
20:00 +22°C° 0 mm 0 m/s 742 mmHg 80%
21:00 +21°C° 0 mm 0 m/s 742 mmHg 83%
22:00 +22°C° 0 mm 1 m/s 742 mmHg 85%
23:00 +22°C° 0 mm 1 m/s 742 mmHg 86%

Depois de amanhã, 27 Julho, Terça-feira

Tempo Temperatura Precipitação Vento Pressão Humidade
00:00 +21°C° 0 mm 1 m/s 742 mmHg 88%
01:00 +21°C° 0 mm 1 m/s 742 mmHg 90%
02:00 +21°C° 0.2 mm 1 m/s 742 mmHg 91%
03:00 +21°C° 0.2 mm 1 m/s 742 mmHg 92%
04:00 +19°C° 0.2 mm 2 m/s 742 mmHg 93%
05:00 +20°C° 0.2 mm 2 m/s 743 mmHg 90%
06:00 +21°C° 0.2 mm 2 m/s 743 mmHg 88%
07:00 +23°C° 0.2 mm 2 m/s 743 mmHg 86%
08:00 +25°C° 0.1 mm 3 m/s 744 mmHg 80%
09:00 +26°C° 0.1 mm 3 m/s 744 mmHg 74%
10:00 +27°C° 0.1 mm 3 m/s 744 mmHg 68%
11:00 +28°C° 0.5 mm 3 m/s 744 mmHg 65%
12:00 +28°C° 0.5 mm 3 m/s 744 mmHg 63%
13:00 +29°C° 0.5 mm 3 m/s 744 mmHg 61%
14:00 +29°C° 0.1 mm 2 m/s 744 mmHg 60%
15:00 +29°C° 0.1 mm 2 m/s 744 mmHg 59%
16:00 +29°C° 0.1 mm 2 m/s 744 mmHg 57%
17:00 +28°C° 0 mm 2 m/s 744 mmHg 63%
18:00 +26°C° 0 mm 1 m/s 744 mmHg 68%
19:00 +25°C° 0 mm 1 m/s 744 mmHg 73%
20:00 +24°C° 0 mm 1 m/s 744 mmHg 76%
21:00 +23°C° 0 mm 1 m/s 745 mmHg 79%
22:00 +22°C° 0 mm 1 m/s 745 mmHg 81%
23:00 +22°C° 0 mm 1 m/s 745 mmHg 83%

28 Julho, Quarta-feira

Tempo Temperatura Precipitação Vento Pressão Humidade
00:00 +21°C° 0 mm 1 m/s 745 mmHg 84%
01:00 +21°C° 0 mm 1 m/s 745 mmHg 85%
02:00 +21°C° 0 mm 1 m/s 745 mmHg 85%
03:00 +21°C° 0 mm 1 m/s 745 mmHg 86%
04:00 +20°C° 0 mm 1 m/s 744 mmHg 86%
05:00 +22°C° 0 mm 1 m/s 745 mmHg 81%
06:00 +24°C° 0 mm 1 m/s 745 mmHg 75%
07:00 +23°C° 0 mm 0 m/s 745 mmHg 70%
08:00 +27°C° 0 mm 1 m/s 744 mmHg 64%
09:00 +28°C° 0 mm 1 m/s 744 mmHg 59%
10:00 +30°C° 0 mm 2 m/s 744 mmHg 53%
11:00 +31°C° 0 mm 2 m/s 744 mmHg 51%
12:00 +31°C° 0 mm 1 m/s 743 mmHg 48%
13:00 +32°C° 0 mm 1 m/s 743 mmHg 46%
14:00 +30°C° 0.5 mm 1 m/s 743 mmHg 55%
15:00 +29°C° 0.5 mm 2 m/s 743 mmHg 64%
16:00 +27°C° 0.5 mm 2 m/s 742 mmHg 73%
17:00 +26°C° 0.4 mm 2 m/s 742 mmHg 79%
18:00 +24°C° 0.4 mm 3 m/s 743 mmHg 84%
19:00 +22°C° 0.4 mm 3 m/s 743 mmHg 90%
20:00 +21°C° 0.7 mm 2 m/s 743 mmHg 91%
21:00 +20°C° 0.7 mm 2 m/s 743 mmHg 93%
22:00 +20°C° 0.7 mm 2 m/s 744 mmHg 95%
23:00 +19°C° 1.3 mm 2 m/s 744 mmHg 95%

29 Julho, Quinta-feira

Tempo Temperatura Precipitação Vento Pressão Humidade
00:00 +19°C° 1.3 mm 3 m/s 744 mmHg 95%
01:00 +19°C° 1.3 mm 4 m/s 744 mmHg 96%
02:00 +19°C° 0.9 mm 4 m/s 744 mmHg 96%
03:00 +19°C° 0.9 mm 3 m/s 745 mmHg 95%
04:00 +18°C° 0.9 mm 3 m/s 745 mmHg 95%
05:00 +19°C° 0 mm 3 m/s 745 mmHg 94%
06:00 +19°C° 0 mm 3 m/s 746 mmHg 92%
07:00 +19°C° 0 mm 3 m/s 746 mmHg 91%
08:00 +21°C° 0 mm 3 m/s 746 mmHg 83%
09:00 +22°C° 0 mm 3 m/s 746 mmHg 76%
10:00 +25°C° 0 mm 2 m/s 746 mmHg 68%
11:00 +25°C° 0 mm 2 m/s 746 mmHg 64%
12:00 +26°C° 0 mm 2 m/s 746 mmHg 59%
13:00 +27°C° 0 mm 2 m/s 746 mmHg 55%
14:00 +28°C° 0 mm 2 m/s 745 mmHg 54%
15:00 +28°C° 0 mm 1 m/s 745 mmHg 54%
16:00 +28°C° 0 mm 1 m/s 745 mmHg 53%
17:00 +27°C° 0 mm 1 m/s 745 mmHg 59%
18:00 +25°C° 0 mm 1 m/s 744 mmHg 65%
19:00 +24°C° 0 mm 1 m/s 744 mmHg 71%
20:00 +23°C° 0 mm 1 m/s 744 mmHg 73%
21:00 +22°C° 0 mm 1 m/s 744 mmHg 76%
22:00 +21°C° 0 mm 1 m/s 744 mmHg 78%
23:00 +21°C° 0 mm 1 m/s 744 mmHg 80%

30 Julho, Sexta-feira

Tempo Temperatura Precipitação Vento Pressão Humidade
00:00 +20°C° 0 mm 1 m/s 744 mmHg 82%
01:00 +19°C° 0 mm 2 m/s 744 mmHg 85%
02:00 +19°C° 0 mm 2 m/s 743 mmHg 86%
03:00 +19°C° 0 mm 2 m/s 743 mmHg 87%
04:00 +18°C° 0 mm 2 m/s 743 mmHg 88%
05:00 +20°C° 0 mm 2 m/s 743 mmHg 82%
06:00 +23°C° 0 mm 2 m/s 743 mmHg 76%
07:00 +25°C° 0 mm 2 m/s 743 mmHg 70%
08:00 +26°C° 0 mm 2 m/s 743 mmHg 63%
09:00 +28°C° 0 mm 2 m/s 742 mmHg 57%
10:00 +30°C° 0 mm 2 m/s 742 mmHg 50%
11:00 +31°C° 0 mm 2 m/s 742 mmHg 46%
12:00 +32°C° 0 mm 1 m/s 741 mmHg 43%
13:00 +33°C° 0 mm 1 m/s 741 mmHg 39%
14:00 +33°C° 0 mm 1 m/s 741 mmHg 41%
15:00 +34°C° 0 mm 2 m/s 740 mmHg 43%
16:00 +34°C° 0 mm 2 m/s 740 mmHg 46%
17:00 +29°C° 1.4 mm 2 m/s 740 mmHg 61%
18:00 +26°C° 1.4 mm 2 m/s 740 mmHg 76%
19:00 +23°C° 1.4 mm 2 m/s 740 mmHg 91%
20:00 +23°C° 1.7 mm 2 m/s 741 mmHg 92%
21:00 +22°C° 1.7 mm 1 m/s 741 mmHg 94%
22:00 +22°C° 1.7 mm 1 m/s 741 mmHg 95%
23:00 +21°C° 2.3 mm 1 m/s 741 mmHg 96%
Mostrar mais

Necessitamos do seu Consentimento

A Meteoprog e os seus Fornecedores de Serviços podem armazenar e aceder a dados pessoais como cookies, identificadores do dispositivo ou outras tecnologias semelhantes existentes no seu dispositivo e processar estes dados para personalizar conteúdos e anúncios, assim como funcionalidades nas redes sociais e análise de tráfego.

  • Armazenar e/ou aceder a informações no seu dispositivo

    Os cookies, identificadores do dispositivo ou outras informações podem ser armazenados ou acedidos no seu dispositivo, para os fins acima indicados.

  • Anúncios e conteúdos personalizados, medição de anúncios e conteúdos, dados sobre o público-alvo e desenvolvimento de produtos

    Os anúncios e os conteúdos podem ser personalizados com base num perfil. Podem ser adicionados dados adicionais para uma maior personalização dos anúncios e dos conteúdos. A eficácia dos anúncios e dos conteúdos pode ser medida. Podem ser obtidas informações sobre o público que visualizou os anúncios e os conteúdos. Estes dados podem ser usados para desenvolver ou melhorar sistemas, softwares ou a experiência do utilizador.

Ao clicar em "Eu concordo”, permitirá o uso de cookies, identificadores do dispositivo e web beacons mencionados ou outras tecnologias semelhantes. As configurações do navegador do seu dispositivo podem ser alteradas.

Para certos fins, podem ser invocados interesses legítimos ao invés de consentimento. Pode ler mais informação sobre este assunto na nossa Política de Privacidade e Cookies.